Weather History for Eugene, OR

Change the Weather History Date:

Wednesday, January 29, 2014

  Actual Average Record
Temperature  
Mean Temperature 48 °F 42 °F  
Max Temperature 56 °F 49 °F 64 °F (1960)
Min Temperature 40 °F 35 °F 2 °F (1957)
Degree Days  
Heating Degree Days 17 23  
Month to date heating degree days 733 706  
Since 1 July heating degree days 2879 2663  
Cooling Degree Days 0 0  
Month to date cooling degree days 0 0  
Year to date cooling degree days 0 0  
Moisture  
Dew Point 45 °F    
Average Humidity 83    
Maximum Humidity 100    
Minimum Humidity 66    
Precipitation  
Precipitation 0.07 in 0.19 in 2.06 in (1958)
Month to date precipitation 2.50 6.47  
Year to date precipitation 2.50 6.47  
Sea Level Pressure  
Sea Level Pressure 29.98 in    
Wind  
Wind Speed 13 mph (SSW)    
Max Wind Speed 32 mph    
Max Gust Speed 39 mph    
Visibility 8 miles    
Events Rain    
T = Trace of Precipitation, MM = Missing Value Source: NWS Daily Summary

Daily Weather History Graph

Daily Weather History Graph

Search for Another Location

Airport:

Trip Planner

Search our weather history database for the weather conditions in past years. The results will help you decide how hot, cold, wet, or windy it might be!

Date:

Astronomy

Jan. 29, 2014 Rise Set
Actual Time 7:33 AM PST 5:18 PM PST
Civil Twilight 7:02 AM PST 5:49 PM PST
Nautical Twilight 6:27 AM PST 6:24 PM PST
Astronomical Twilight 5:53 AM PST 6:58 PM PST
Moon 6:15 AM PST (1/29) 4:25 PM PST (1/29)
Length of Visible Light 10h 47m
Length of Day
9h 45m
Waning Crescent, 2% of the Moon is Illuminated
Jan 29
Waning Crescent
Jan 30
New
Feb 6
First Quarter
Feb 14
Full
Feb 22
Last Quarter

Hourly Weather History & Observations

Time (PST) Temp. Windchill Dew Point Humidity Pressure Visibility Wind Dir Wind Speed Gust Speed Precip Events Conditions
12:08 AM 45.0 °F 42.6 °F 43.0 °F 93% 30.01 in 4.0 mi SSW 4.6 mph - N/A   Overcast
12:22 AM 45.0 °F 41.8 °F 44.1 °F 97% 30.00 in 2.5 mi South 5.8 mph - 0.00 in Rain Light Rain
12:31 AM 45.0 °F 42.6 °F 44.1 °F 97% 29.99 in 3.0 mi South 4.6 mph - 0.00 in   Overcast
12:41 AM 45.0 °F 41.8 °F 44.1 °F 97% 29.98 in 3.0 mi South 5.8 mph - 0.01 in   Overcast
12:54 AM 45.0 °F 42.6 °F 44.1 °F 97% 29.99 in 4.0 mi South 4.6 mph - 0.01 in   Overcast
1:02 AM 46.0 °F 44.8 °F 45.0 °F 96% 29.98 in 4.0 mi South 3.5 mph - N/A   Overcast
1:23 AM 46.0 °F 43.9 °F 44.1 °F 93% 29.97 in 2.5 mi SW 4.6 mph - N/A   Overcast
1:50 AM 46.4 °F - 44.6 °F 93% 29.98 in 2.0 mi Calm Calm - 0.01 in Rain Light Rain
1:54 AM 46.0 °F 44.8 °F 45.0 °F 96% 29.99 in 2.0 mi South 3.5 mph - 0.02 in Rain Light Rain
2:08 AM 46.9 °F - 45.0 °F 93% 29.98 in 3.0 mi South 5.8 mph - 0.00 in Rain Light Rain
2:54 AM 46.9 °F - 46.0 °F 97% 29.98 in 5.0 mi South 4.6 mph - 0.01 in   Overcast
3:09 AM 48.9 °F - 48.0 °F 97% 29.97 in 10.0 mi SSW 6.9 mph - N/A   Overcast
3:54 AM 51.1 °F - 48.0 °F 89% 29.99 in 10.0 mi SW 11.5 mph - N/A   Overcast
4:54 AM 50.0 °F - 46.9 °F 89% 29.99 in 10.0 mi SSW 12.7 mph - N/A   Overcast
5:54 AM 50.0 °F - 48.0 °F 93% 29.98 in 9.0 mi SSW 10.4 mph - 0.02 in Rain Light Rain
6:54 AM 50.0 °F - 46.9 °F 89% 29.96 in 10.0 mi SSW 9.2 mph - 0.01 in   Overcast
7:09 AM 50.0 °F - 46.9 °F 89% 29.96 in 10.0 mi SSW 12.7 mph - N/A   Overcast
7:40 AM 50.0 °F - 46.0 °F 86% 29.96 in 10.0 mi SSW 13.8 mph - N/A   Overcast
7:54 AM 50.0 °F - 46.0 °F 86% 29.96 in 10.0 mi South 15.0 mph - N/A   Overcast
8:54 AM 51.1 °F - 46.0 °F 83% 29.94 in 10.0 mi South 17.3 mph - N/A   Overcast
9:54 AM 52.0 °F - 46.0 °F 80% 29.95 in 10.0 mi SSW 17.3 mph - N/A   Overcast
10:54 AM 53.1 °F - 46.0 °F 77% 29.95 in 10.0 mi SSW 21.9 mph 31.1 mph N/A   Mostly Cloudy
11:54 AM 53.1 °F - 46.9 °F 80% 29.94 in 10.0 mi SSW 23.0 mph 32.2 mph N/A   Overcast
12:54 PM 55.9 °F - 46.9 °F 72% 29.93 in 10.0 mi SW 23.0 mph 33.4 mph N/A   Mostly Cloudy
1:54 PM 55.0 °F - 44.1 °F 67% 29.92 in 10.0 mi SW 26.5 mph 34.5 mph N/A   Mostly Cloudy
2:54 PM 54.0 °F - 44.1 °F 69% 29.93 in 10.0 mi SW 26.5 mph 35.7 mph N/A   Mostly Cloudy
3:54 PM 52.0 °F - 45.0 °F 77% 29.95 in 10.0 mi SW 19.6 mph - N/A   Mostly Cloudy
4:54 PM 48.9 °F - 45.0 °F 86% 29.95 in 8.0 mi WSW 12.7 mph - 0.00 in Rain Light Rain
5:54 PM 48.0 °F - 44.1 °F 86% 29.96 in 10.0 mi SSW 6.9 mph - 0.00 in   Mostly Cloudy
6:54 PM 48.0 °F - 42.1 °F 80% 29.99 in 10.0 mi SW 8.1 mph - N/A   Overcast
7:54 PM 46.9 °F - 42.1 °F 83% 30.02 in 10.0 mi SW 8.1 mph - N/A   Overcast
8:24 PM 46.9 °F - 42.1 °F 83% 30.01 in 10.0 mi SSW 9.2 mph - N/A   Mostly Cloudy
8:54 PM 46.9 °F - 42.1 °F 83% 30.02 in 10.0 mi SW 9.2 mph - N/A   Mostly Cloudy
9:54 PM 43.0 °F 39.5 °F 39.9 °F 89% 30.03 in 10.0 mi WSW 5.8 mph - N/A   Mostly Cloudy
10:54 PM 42.1 °F 38.4 °F 39.0 °F 89% 30.04 in 10.0 mi SSW 5.8 mph - N/A   Mostly Cloudy
11:54 PM 44.1 °F 40.1 °F 41.0 °F 89% 30.04 in 10.0 mi South 6.9 mph - N/A   Overcast